Regional Weather Roundup
Issued by NWS

Home | Current Version | Previous Version | Text Only | Print | Product List | Glossary On
Versions: 1 2 3 4 5 6 7 8 9 10 11 12 13 14 15 16 17 18 19 20 21 22 23 24 25 26 27 28 29 30 31 32 33 34 35 36 37 38 39 40 41 42 43 44 45 46 47 48 49 50
624
ASUS43 KLSX 071810
RWRMO

WEATHER SUMMARY FOR MISSOURI
NATIONAL WEATHER SERVICE SPRINGFIELD MO
1200 PM CST SUN FEB 07 2016

NOTE: "FAIR" INDICATES FEW OR NO CLOUDS BELOW 12,000 FEET WITH NO
       SIGNIFICANT WEATHER AND/OR OBSTRUCTIONS TO VISIBILITY.
       CURRENT SKY AND/OR WEATHER CONDITIONS ARE NOT AVAILABLE FOR
       CHILLICOTHE AND FARMINGTON.

MOZ001>031-035>038-043-044-053-054-071900-
...NORTHERN AND WESTERN MISSOURI...

CITY           SKY/WX    TMP DP  RH WIND       PRES   REMARKS
KANSAS CTY INT PTSUNNY   49  25  39 N17G24    30.05S
6HR MIN TEMP:  37; 6HR MAX TEMP:  50;

KANSAS C DTWN  CLOUDY    51  24  34 NW16G23   30.04F
6HR MIN TEMP:  40; 6HR MAX TEMP:  52;

LEE`S SUMMIT   MOSUNNY   50  26  39 NW16G25   30.04S
6HR MIN TEMP:  39; 6HR MAX TEMP:  50;

ST JOSEPH      MOSUNNY   48  25  40 NW16G24   30.06F
6HR MIN TEMP:  33; 6HR MAX TEMP:  48;

CHILLICOTHE      N/A     51  27  39 NW12G22   29.99F
6HR MIN TEMP:  37; 6HR MAX TEMP:  51;

KIRKSVILLE     SUNNY     48  27  44 NW18G25   29.93S
6HR MIN TEMP:  37; 6HR MAX TEMP:  48;


$$
MOZ066>068-077>081-088>096-101>105-071900-
...SOUTHWEST MISSOURI...

CITY           SKY/WX    TMP DP  RH WIND       PRES   REMARKS
SPRINGFIELD    CLOUDY    47  27  45 W16       30.04F
6HR MIN TEMP:  30; 6HR MAX TEMP:  48;

JOPLIN         CLOUDY    45  30  55 W10       30.11S
6HR MIN TEMP:  40; 6HR MAX TEMP:  45;


$$
MOZ032>034-039>042-045>050-055>058-069>072-071900-
...CENTRAL MISSOURI...

CITY           SKY/WX    TMP DP  RH WIND       PRES   REMARKS
COLUMBIA       MOSUNNY   46  29  51 W15       29.97F
6HR MIN TEMP:  36; 6HR MAX TEMP:  47;

JEFFERSON CITY CLOUDY    48  28  46 W15       29.99F
6HR MIN TEMP:  36; 6HR MAX TEMP:  48;

ROLLA          MOSUNNY   47  29  49 W17       29.96F
6HR MIN TEMP:  35; 6HR MAX TEMP:  49;

SEDALIA        MOSUNNY   48  29  47 W14       30.01F
6HR MIN TEMP:  40; 6HR MAX TEMP:  48;

WHITEMAN AFB   MOSUNNY   50  28  43 NW14G22   30.01S
WARRENSBURG    SUNNY     50  28  43 NW12G25   30.02S
OSAGE BEACH    CLOUDY    48  27  43 W14G20    30.01F

$$
MOZ051-052-059>065-071900-
...EAST CENTRAL MISSOURI...

CITY           SKY/WX    TMP DP  RH WIND       PRES   REMARKS
ST LOUIS INTL  CLOUDY    54  28  36 W18G25    29.93F
6HR MIN TEMP:  41; 6HR MAX TEMP:  54;

SPIRIT OF STL  CLOUDY    52  30  43 W18       29.94F
6HR MIN TEMP:  41; 6HR MAX TEMP:  52;

ST CHARLES     PTSUNNY   49  29  46 W18G25    29.93F
6HR MIN TEMP:  29; 6HR MAX TEMP:  51;


$$
MOZ072>076-082>087-097>100-106>115-071900-
...SOUTH CENTRAL AND SOUTHEAST MISSOURI...

CITY           SKY/WX    TMP DP  RH WIND       PRES   REMARKS
CAPE GIRARDEAU MOSUNNY   53  32  44 SW16G23   30.03F
6HR MIN TEMP:  31; 6HR MAX TEMP:  53;

FARMINGTON     CLOUDY    53  26  35 SW10      29.96F
6HR MIN TEMP:  33; 6HR MAX TEMP:  54;

POPLAR BLUFF   CLOUDY    54  31  41 SW17G25   30.04F
6HR MIN TEMP:  31; 6HR MAX TEMP:  54;

WEST PLAINS    CLOUDY    52  26  36 W17G26    30.03F
6HR MIN TEMP:  33; 6HR MAX TEMP:  52;


$$




USA.gov is the U.S. government's official web portal to all federal, state and local government web resources and services.